STARLINK-32797, 62843

Orbit data source: Space-Track

STARLINK-32797, 62843 is a payload satellite owned by SpaceX/Seattle (US) in LEO that was launched on Mon, 27 Jan 2025 UTC via an FALCON 9 launch vehicle from the Air Force Eastern Test Range (AFETR). Payload-class satellites include a variety of spacecraft equipped with specific instruments for various scientific and technological missions. These include communications satellites like Starlink; space stations such as the ISS; scientific satellites like the Hubble; Earth observation satellites from companies like Planet Labs, Umbra, and HawkEye 360; GPS; miniature CubeSats for education and research; and military/defense satellites.

Loading next visibility...
Identifier
62843, 2025-019Q
Orbit
LEO
Country
Flag of USUS
Related business
Manufacturer
SpaceX/Seattle
Mission
Operational Commercial Communications
Bus & Motor
STARLINK V2M, Unknown motor
Mass
730 kg wet, ~700 kg dry
Launch date (UTC)
2025-01-27 (11 months ago)
Launch vehicle
FALCON 9
Launch site
Air Force Eastern Test Range (AFETR)
Object type
Payload
Rocket body
Debris
Shape & HBR
Box + 2 Pan, 17.7 m
Radar Cross Section
33.884 m², Large (>1 m²)

Expand to show TLE details & history
Last TLE update: 18 hours ago

TLE from 18 hours ago
0 STARLINK-32797
1 62843U 25019Q   25352.88472095  .00020904  00000-0  76714-3 0  9993
2 62843  42.9964 185.2532 0001124 287.8632  72.2097 15.27573455 49890
Epoch: 2025-12-18T21:13Z
TLE epoch observation values (Epoch: 2025-12-18T21:13:59.890Z)
Latitude
Longitude
139.01984°
Altitude
482.608 km
Speed
7.626 km/s
True Right ascension
12h 21m 00s
True Declination
0° 00' 00"
Sunlit
Object was in daylight at epoch
Visualization orbit readout
Latitude
Unknown
Longitude
Unknown
Altitude
Unknown
Speed
Unknown
Apparent Right ascension
Unknown
Apparent Declination
Unknown
Sunlit
N/A
Visualization observer readout
Local Sidereal Time
13:58:37
Azimuth
Unknown
Elevation
Unknown
Doppler factor
Unknown
Orbital elements
Apogee altitude
485.786 km
Perigee altitude
484.243 km
Semi-major axis
6,863.151 km
Eccentricity
0.00011
Inclination
42.9964°
RAAN
185.2532°
Arg. of periapsis
287.8632°
True anomaly
72.22196°
Mean anomaly
72.2097°
Eccentric anomaly
72.21583°
Mean motion
3.81731 °/min
Orbital period
94.31 mins
BSTAR
0.00076714
Loading maneuver chart data...
Computing Atmospheric mass density...
Loading historical data...
Loading historical data...
Loading historical data...
Loading historical data...
Loading historical data...
Loading historical data...
Loading historical data...

Documentation

Showing up to 5 results
|